Regional Weather Roundup
Issued by NWS

Home | Current Version | Previous Version | Text Only | Print | Product List | Glossary Off
Versions: 1 2 3 4 5 6 7 8 9 10 11 12 13 14 15 16 17 18 19 20 21 22 23 24 25 26 27 28 29 30 31 32 33 34 35 36 37 38 39 40 41 42 43 44 45 46 47 48 49 50

000
ASUS45 KABQ 291001
RWRNM
NEW MEXICO REGIONAL WEATHER ROUNDUP
NATIONAL WEATHER SERVICE ALBUQUERQUE NM
400 AM MDT WED JUL 29 2015

NOTE: "FAIR" MEANS FEW OR NO CLOUDS BELOW 12,000 FEET AGL WITH NO
       SIGNIFICANT WEATHER OR OBSTRUCTIONS TO VISION.

      THIS PRODUCT IS RELEASED AS TWO VERSIONS.  ONE VERSION NEAR
      THE TOP OF THE HOUR CONTAINING PRELIMINARY DATA FROM ALBUQUERQUE
      AND OTHER STATIONS.  A FINAL VERSION WITH ADDITIONAL DATA IS
      ISSUED ABOUT 10 MINUTES AFTER THE HOUR.

NMZ501-503-504-510>518-291100-
NORTHWEST PLATEAU/NORTHCENTRAL MOUNTAINS

CITY           SKY/WX    TMP DP  RH WIND       PRES   REMARKS
FARMINGTON     CLEAR     61  28  28 NE7       30.18R
SANTA FE       CLOUDY    65  53  65 SE10      30.31S
TAOS           PTCLDY    57  41  54 E3        30.36S

$$
NMZ402-403-502-505>509-291100-
WESTCENTRAL MOUNTAINS/SOUTHWEST MOUNTAINS

CITY           SKY/WX    TMP DP  RH WIND       PRES   REMARKS
GALLUP         MOCLDY    66  47  50 CALM      30.28S
SILVER CITY      N/A     68  57  68 S7G21     30.26S

$$
NMZ407-409-411-412-291100-
SOUTHERN DESERTS

CITY           SKY/WX    TMP DP  RH WIND       PRES   REMARKS
DEMING         CLOUDY    74  58  57 CALM      30.18R
ALAMOGORDO     CLOUDY    68  64  88 NW9       30.17S
T OR C         MOCLDY    69  64  84 N5        30.20S

$$
NMZ519>523-291100-
CENTRAL VALLEYS/CENTRAL HIGHLANDS

CITY           SKY/WX    TMP DP  RH WIND       PRES   REMARKS
ALBUQUERQUE    MOCLDY    73  52  47 E9        30.23S
DOUBLE EAGLE   CLOUDY    66  57  72 S3        30.27S
CLINES CORNERS CLOUDY    60  54  80 E5        30.35S
BELEN          LGT RAIN  67  59  75 S7        30.23R
SOCORRO        NOT AVBL

$$
NMZ524>526-539-540-291100-
SOUTHCENTRAL MOUNTAINS

CITY           SKY/WX    TMP DP  RH WIND       PRES   REMARKS
RUIDOSO          N/A    N/A N/A N/A MISG        N/A

$$
NMZ527>531-291100-
NORTHEAST HIGHLANDS/NORTHEAST PLAINS

CITY           SKY/WX    TMP DP  RH WIND       PRES   REMARKS
LAS VEGAS      LGT RAIN  58  55  90 N6        30.38R
RATON          MOCLDY    60  53  77 NW8       30.33S
CLAYTON        PTCLDY    62  60  93 N12       30.21F

$$
NMZ532>537-291100-
EASTCENTRAL PLAINS

CITY           SKY/WX    TMP DP  RH WIND       PRES   REMARKS
TUCUMCARI      MOCLDY    67  63  87 W5        30.17S
CANNON AFB     MOCLDY    67  65  91 NW5       30.18R
CLOVIS AIRPORT PTCLDY    64  63  94 NW6       30.18R

$$
NMZ028-029-538-291100-
SOUTHEAST PLAINS

CITY           SKY/WX    TMP DP  RH WIND       PRES   REMARKS
ROSWELL        CLOUDY    71  66  84 NW10      30.11F
ARTESIA        CLOUDY    70  68  94 W20       30.10F
CARLSBAD       MOCLDY    73  67  81 W5        30.11R
HOBBS          PTCLDY    70  63  78 NW9       30.14S


$$


USA.gov is the U.S. government's official web portal to all federal, state and local government web resources and services.